This is the latest recevied weather packets stored in our database for station/object SY3EBK-13. If no packets are shown the sender has not sent any weather packets the latest 1 day(s).
| Time | Temp. | Humidity | Pressure | Rain* | Wind** | Luminosity | Snow |
|---|---|---|---|---|---|---|---|
| 1778058625 | 17.22° C | 42% | 916.1 hPa | - | 0 m/s | - | - |
| 1778057725 | 16.67° C | 42% | 916 hPa | - | 0 m/s | - | - |
| 1778056825 | 16.67° C | 42% | 915.9 hPa | - | 0 m/s | - | - |
| 1778055925 | 16.11° C | 43% | 916 hPa | - | 0 m/s | - | - |
| 1778055025 | 15.56° C | 43% | 915.9 hPa | - | 0 m/s | - | - |
| 1778054125 | 15.56° C | 45% | 915.9 hPa | - | 0 m/s | - | - |
| 1778053225 | 15.56° C | 45% | 915.9 hPa | - | 0 m/s | - | - |
| 1778052325 | 15° C | 46% | 915.9 hPa | - | 0 m/s | - | - |
| 1778051425 | 14.44° C | 48% | 916 hPa | - | 0 m/s | - | - |
| 1778050526 | 14.44° C | 48% | 916 hPa | - | 0 m/s | - | - |
| 1778049625 | 13.89° C | 50% | 916 hPa | - | 0 m/s | - | - |
| 1778048725 | 13.89° C | 50% | 916 hPa | - | 0 m/s | - | - |
| 1778047825 | 12.78° C | 51% | 915.9 hPa | - | 0 m/s | - | - |
| 1778046925 | 12.22° C | 52% | 915.8 hPa | - | 0 m/s | - | - |
| 1778046025 | 11.67° C | 49% | 915.7 hPa | - | 0 m/s | - | - |
| 1778045125 | 11.11° C | 54% | 915.7 hPa | - | 0 m/s | - | - |
| 1778043325 | 8.89° C | 56% | 915.7 hPa | - | 0 m/s | - | - |
| 1778042425 | 8.89° C | 60% | 915.6 hPa | - | 0 m/s | - | - |
| 1778041525 | 9.44° C | 55% | 915.5 hPa | - | 0 m/s | - | - |
| 1778040625 | 9.44° C | 47% | 915.4 hPa | - | 0 m/s | - | - |
| 1778039726 | 9.44° C | 48% | 915.5 hPa | - | 0 m/s | - | - |
| 1778038825 | 9.44° C | 55% | 915.4 hPa | - | 0 m/s | - | - |
| 1778037925 | 9.44° C | 51% | 915.4 hPa | - | 0 m/s | - | - |
| 1778037025 | 9.44° C | 51% | 915.4 hPa | - | 0 m/s | - | - |
| 1778036126 | 9.44° C | 56% | 915.5 hPa | - | 0 m/s | - | - |
* Rain since midnight (hover to see other rain measurements)
** Current wind speed in m/s (hover to see current wind gust speed)